TimePDT,TemperatureF,Dew PointF,Humidity,Sea Level PressureIn,VisibilityMPH,Wind Direction,Wind SpeedMPH,Gust SpeedMPH,PrecipitationIn,Events,Conditions,WindDirDegrees,DateUTC
12:53 AM,54.0,53.1,97,29.98,2.0,WNW,9.2,-,N/A,,Overcast,290,2013-08-09 07:53:00
1:00 AM,53.1,53.1,100,29.98,1.2,WNW,9.2,-,N/A,,Overcast,290,2013-08-09 08:00:00
1:11 AM,54.0,53.1,97,29.97,1.0,WNW,9.2,-,N/A,,Overcast,290,2013-08-09 08:11:00
1:53 AM,54.0,53.1,97,29.98,1.5,West,5.8,-,N/A,,Overcast,280,2013-08-09 08:53:00
2:53 AM,54.0,53.1,97,29.97,1.5,West,8.1,-,N/A,,Overcast,280,2013-08-09 09:53:00
3:13 AM,54.0,53.1,97,29.97,1.0,West,6.9,-,N/A,,Mist,280,2013-08-09 10:13:00
3:53 AM,54.0,53.1,97,29.96,1.0,West,8.1,-,N/A,,Mist,280,2013-08-09 10:53:00
4:02 AM,54.0,53.1,97,29.96,0.8,WNW,5.8,-,N/A,,Mist,290,2013-08-09 11:02:00
4:53 AM,54.0,53.1,97,29.96,0.8,West,5.8,-,N/A,,Mist,280,2013-08-09 11:53:00
5:05 AM,53.1,53.1,100,29.96,1.0,West,4.6,-,N/A,,Mist,280,2013-08-09 12:05:00
5:23 AM,53.1,53.1,100,29.96,0.8,WNW,6.9,-,N/A,,Mist,290,2013-08-09 12:23:00
5:44 AM,53.1,52.0,96,29.96,1.0,West,6.9,-,N/A,,Mist,270,2013-08-09 12:44:00
5:53 AM,53.1,52.0,96,29.96,0.8,West,4.6,-,N/A,,Mist,280,2013-08-09 12:53:00
6:16 AM,53.1,52.0,96,29.96,0.2,WNW,6.9,-,N/A,Fog,Fog,290,2013-08-09 13:16:00
6:53 AM,53.1,52.0,96,29.96,0.2,WNW,5.8,-,N/A,Fog,Fog,300,2013-08-09 13:53:00
7:13 AM,53.1,52.0,96,29.96,0.5,WNW,4.6,-,N/A,Fog,Fog,300,2013-08-09 14:13:00
7:24 AM,53.1,53.1,100,29.96,0.2,WNW,4.6,-,N/A,Fog,Fog,290,2013-08-09 14:24:00
7:53 AM,53.1,53.1,100,29.96,1.8,WNW,4.6,-,N/A,,Overcast,300,2013-08-09 14:53:00
8:16 AM,54.0,54.0,100,29.95,1.8,Calm,Calm,-,N/A,,Overcast,0,2013-08-09 15:16:00
8:20 AM,54.0,54.0,100,29.95,4.0,Calm,Calm,-,N/A,,Overcast,0,2013-08-09 15:20:00
8:32 AM,55.0,54.0,96,29.95,10.0,Calm,Calm,-,N/A,,Mostly Cloudy,0,2013-08-09 15:32:00
8:42 AM,55.9,54.0,93,29.95,10.0,NW,3.5,-,N/A,,Scattered Clouds,310,2013-08-09 15:42:00
8:53 AM,57.9,54.0,87,29.96,10.0,NNW,3.5,-,N/A,,Clear,340,2013-08-09 15:53:00
9:53 AM,59.0,53.1,81,29.95,10.0,NNE,3.5,-,N/A,,Clear,20,2013-08-09 16:53:00
10:53 AM,63.0,54.0,72,29.95,10.0,North,3.5,-,N/A,,Clear,10,2013-08-09 17:53:00
11:53 AM,64.9,53.1,65,29.94,10.0,North,5.8,-,N/A,,Clear,350,2013-08-09 18:53:00
12:53 PM,70.0,54.0,57,29.92,10.0,North,4.6,-,N/A,,Clear,10,2013-08-09 19:53:00
1:53 PM,70.0,55.0,59,29.92,10.0,North,5.8,-,N/A,,Clear,350,2013-08-09 20:53:00
2:53 PM,69.1,54.0,58,29.91,10.0,WNW,8.1,-,N/A,,Clear,290,2013-08-09 21:53:00
3:53 PM,64.9,54.0,68,29.90,10.0,WNW,5.8,-,N/A,,Clear,300,2013-08-09 22:53:00
4:53 PM,64.0,54.0,70,29.89,10.0,WNW,9.2,-,N/A,,Clear,300,2013-08-09 23:53:00
5:53 PM,64.9,55.0,70,29.87,10.0,NW,6.9,-,N/A,,Clear,310,2013-08-10 00:53:00
6:53 PM,66.9,55.0,66,29.86,10.0,WNW,8.1,-,N/A,,Clear,300,2013-08-10 01:53:00
7:53 PM,64.9,54.0,68,29.87,10.0,WNW,9.2,-,N/A,,Clear,290,2013-08-10 02:53:00
8:53 PM,57.9,52.0,81,29.88,10.0,WNW,5.8,-,N/A,,Clear,290,2013-08-10 03:53:00
9:53 PM,55.9,53.1,90,29.89,10.0,WNW,6.9,-,N/A,,Clear,290,2013-08-10 04:53:00
10:51 PM,55.4,53.6,94,29.88,10.0,WNW,8.1,-,N/A,,Partly Cloudy,290,2013-08-10 05:51:00
10:53 PM,55.0,53.1,93,29.88,10.0,WNW,9.2,-,N/A,,Scattered Clouds,290,2013-08-10 05:53:00
11:09 PM,55.0,53.1,93,29.88,10.0,WNW,8.1,-,N/A,,Mostly Cloudy,290,2013-08-10 06:09:00
11:53 PM,55.0,53.1,93,29.87,10.0,WNW,9.2,-,N/A,,Mostly Cloudy,300,2013-08-10 06:53:00